• In Deutschland
  • Länderverzeichnis
  • Für 7 Tage
  • Wassertemperatur
  • Satellitenkarten
  • Wetterkarte
  • Widgets
  • user-avatar
    Anmelden

    Stündliche Wetter Donaueschingen

    Heute, 19 Februar, Montag

    Zeit Temperatur Niederschläge Wind Luftdruck Luftfeuchtigkeit
    00:00 -6°C° 0 mm 1 m/S 703 mmHg 94%
    01:00 -6°C° 0 mm 1 m/S 703 mmHg 94%
    02:00 -7°C° 0 mm 1 m/S 703 mmHg 94%
    03:00 -7°C° 0 mm 1 m/S 702 mmHg 94%
    04:00 -7°C° 0 mm 0 m/S 702 mmHg 94%
    05:00 -7°C° 0 mm 0 m/S 702 mmHg 93%
    06:00 -7°C° 0 mm 0 m/S 702 mmHg 93%
    07:00 -7°C° 0 mm 0 m/S 702 mmHg 93%
    08:00 -5°C° 0 mm 0 m/S 702 mmHg 90%
    09:00 -4°C° 0 mm 0 m/S 702 mmHg 87%
    10:00 -2°C° 0 mm 0 m/S 702 mmHg 84%
    11:00 -1°C° 0 mm 0 m/S 702 mmHg 83%
    12:00 0°C° 0 mm 0 m/S 701 mmHg 81%
    13:00 +1°C° 0 mm 0 m/S 701 mmHg 79%
    14:00 +1°C° 0 mm 0 m/S 701 mmHg 78%
    15:00 +1°C° 0 mm 0 m/S 701 mmHg 78%
    16:00 +2°C° 0 mm 1 m/S 700 mmHg 77%
    17:00 0°C° 0 mm 0 m/S 700 mmHg 81%
    18:00 -1°C° 0 mm 0 m/S 700 mmHg 84%
    19:00 -3°C° 0 mm 0 m/S 700 mmHg 87%
    20:00 -3°C° 0 mm 0 m/S 700 mmHg 87%
    21:00 -4°C° 0 mm 0 m/S 700 mmHg 87%
    22:00 -4°C° 0 mm 0 m/S 700 mmHg 88%
    23:00 -4°C° 0 mm 0 m/S 700 mmHg 87%

    Morgen, 20 Februar, Dienstag

    Zeit Temperatur Niederschläge Wind Luftdruck Luftfeuchtigkeit
    00:00 -5°C° 0 mm 0 m/S 700 mmHg 87%
    01:00 -5°C° 0 mm 0 m/S 699 mmHg 86%
    02:00 -5°C° 0 mm 0 m/S 699 mmHg 86%
    03:00 -5°C° 0 mm 0 m/S 699 mmHg 86%
    04:00 -5°C° 0 mm 0 m/S 699 mmHg 86%
    05:00 -5°C° 0 mm 0 m/S 699 mmHg 85%
    06:00 -5°C° 0 mm 0 m/S 698 mmHg 85%
    07:00 -5°C° 0 mm 0 m/S 698 mmHg 85%
    08:00 -3°C° 0 mm 0 m/S 698 mmHg 82%
    09:00 -2°C° 0 mm 0 m/S 699 mmHg 79%
    10:00 -1°C° 0 mm 0 m/S 699 mmHg 76%
    11:00 +1°C° 0 mm 1 m/S 698 mmHg 75%
    12:00 +2°C° 0 mm 1 m/S 698 mmHg 73%
    13:00 +2°C° 0 mm 1 m/S 698 mmHg 72%
    14:00 +2°C° 0 mm 1 m/S 698 mmHg 73%
    15:00 +1°C° 0 mm 2 m/S 698 mmHg 74%
    16:00 +1°C° 0 mm 2 m/S 698 mmHg 74%
    17:00 -2°C° 0 mm 2 m/S 698 mmHg 79%
    18:00 -3°C° 0 mm 2 m/S 698 mmHg 83%
    19:00 -5°C° 0 mm 2 m/S 698 mmHg 88%
    20:00 -5°C° 0 mm 2 m/S 698 mmHg 89%
    21:00 -6°C° 0 mm 2 m/S 699 mmHg 90%
    22:00 -6°C° 0 mm 2 m/S 699 mmHg 91%
    23:00 -6°C° 0 mm 2 m/S 699 mmHg 92%

    übermorgen, 21 Februar, Mittwoch

    Zeit Temperatur Niederschläge Wind Luftdruck Luftfeuchtigkeit
    00:00 -7°C° 0 mm 2 m/S 699 mmHg 92%
    01:00 -7°C° 0 mm 2 m/S 699 mmHg 93%
    02:00 -7°C° 0 mm 2 m/S 700 mmHg 93%
    03:00 -6°C° 0 mm 2 m/S 700 mmHg 93%
    04:00 -6°C° 0 mm 2 m/S 700 mmHg 93%
    05:00 -6°C° 0 mm 2 m/S 700 mmHg 93%
    06:00 -7°C° 0 mm 3 m/S 700 mmHg 93%
    07:00 -7°C° 0 mm 3 m/S 701 mmHg 93%
    08:00 -6°C° 0 mm 3 m/S 701 mmHg 90%
    09:00 -5°C° 0 mm 3 m/S 701 mmHg 87%
    10:00 -4°C° 0 mm 4 m/S 701 mmHg 84%
    11:00 -3°C° 0 mm 4 m/S 701 mmHg 81%
    12:00 -3°C° 0 mm 4 m/S 701 mmHg 78%
    13:00 -2°C° 0 mm 4 m/S 701 mmHg 75%
    14:00 -2°C° 0 mm 4 m/S 700 mmHg 74%
    15:00 -2°C° 0 mm 4 m/S 700 mmHg 73%
    16:00 -2°C° 0 mm 4 m/S 700 mmHg 72%
    17:00 -2°C° 0 mm 3 m/S 700 mmHg 76%
    18:00 -4°C° 0 mm 3 m/S 700 mmHg 80%
    19:00 -4°C° 0 mm 2 m/S 700 mmHg 83%
    20:00 -6°C° 0 mm 3 m/S 700 mmHg 84%
    21:00 -6°C° 0 mm 3 m/S 700 mmHg 84%
    22:00 -6°C° 0 mm 3 m/S 700 mmHg 84%
    23:00 -6°C° 0 mm 3 m/S 699 mmHg 85%

    22 Februar, Donnerstag

    Zeit Temperatur Niederschläge Wind Luftdruck Luftfeuchtigkeit
    00:00 -6°C° 0 mm 3 m/S 699 mmHg 86%
    01:00 -7°C° 0 mm 3 m/S 699 mmHg 87%
    02:00 -7°C° 0 mm 3 m/S 698 mmHg 87%
    03:00 -8°C° 0 mm 4 m/S 698 mmHg 86%
    04:00 -8°C° 0 mm 4 m/S 697 mmHg 86%
    05:00 -8°C° 0 mm 4 m/S 697 mmHg 85%
    06:00 -8°C° 0 mm 4 m/S 697 mmHg 85%
    07:00 -8°C° 0 mm 5 m/S 697 mmHg 84%
    08:00 -7°C° 0 mm 5 m/S 697 mmHg 82%
    09:00 -7°C° 0 mm 5 m/S 697 mmHg 79%
    10:00 -6°C° 0 mm 6 m/S 697 mmHg 77%
    11:00 -6°C° 0 mm 6 m/S 697 mmHg 75%
    12:00 -5°C° 0 mm 6 m/S 697 mmHg 74%
    13:00 -4°C° 0 mm 6 m/S 697 mmHg 72%
    14:00 -4°C° 0 mm 6 m/S 696 mmHg 73%
    15:00 -4°C° 0 mm 5 m/S 696 mmHg 73%
    16:00 -4°C° 0 mm 5 m/S 696 mmHg 73%
    17:00 -5°C° 0 mm 5 m/S 696 mmHg 76%
    18:00 -5°C° 0 mm 5 m/S 697 mmHg 78%
    19:00 -6°C° 0 mm 5 m/S 697 mmHg 80%
    20:00 -6°C° 0 mm 5 m/S 697 mmHg 81%
    21:00 -6°C° 0 mm 5 m/S 697 mmHg 82%
    22:00 -7°C° 0 mm 5 m/S 697 mmHg 82%
    23:00 -7°C° 0 mm 5 m/S 697 mmHg 82%

    23 Februar, Freitag

    Zeit Temperatur Niederschläge Wind Luftdruck Luftfeuchtigkeit
    00:00 -7°C° 0 mm 5 m/S 697 mmHg 82%
    01:00 -7°C° 0 mm 5 m/S 697 mmHg 82%
    02:00 -7°C° 0 mm 5 m/S 697 mmHg 82%
    03:00 -7°C° 0 mm 4 m/S 696 mmHg 83%
    04:00 -7°C° 0 mm 4 m/S 696 mmHg 83%
    05:00 -7°C° 0 mm 4 m/S 696 mmHg 83%
    06:00 -7°C° 0 mm 4 m/S 696 mmHg 82%
    07:00 -7°C° 0 mm 4 m/S 696 mmHg 82%
    08:00 -7°C° 0 mm 5 m/S 697 mmHg 80%
    09:00 -6°C° 0 mm 5 m/S 697 mmHg 78%
    10:00 -6°C° 0 mm 5 m/S 697 mmHg 75%
    11:00 -5°C° 0 mm 5 m/S 697 mmHg 74%
    12:00 -4°C° 0 mm 5 m/S 697 mmHg 72%
    13:00 -4°C° 0 mm 5 m/S 697 mmHg 70%
    14:00 -4°C° 0 mm 5 m/S 697 mmHg 70%
    15:00 -4°C° 0 mm 5 m/S 697 mmHg 70%
    16:00 -4°C° 0 mm 5 m/S 697 mmHg 70%
    17:00 -5°C° 0 mm 5 m/S 697 mmHg 73%
    18:00 -6°C° 0 mm 5 m/S 698 mmHg 75%
    19:00 -5°C° 0 mm 4 m/S 698 mmHg 77%
    20:00 -7°C° 0 mm 4 m/S 698 mmHg 77%
    21:00 -8°C° 0 mm 5 m/S 698 mmHg 76%
    22:00 -8°C° 0 mm 5 m/S 699 mmHg 76%
    23:00 -10°C° 0 mm 5 m/S 699 mmHg 76%

    24 Februar, Samstag

    Zeit Temperatur Niederschläge Wind Luftdruck Luftfeuchtigkeit
    00:00 -10°C° 0 mm 5 m/S 699 mmHg 75%
    01:00 -10°C° 0 mm 4 m/S 699 mmHg 75%
    02:00 -10°C° 0 mm 4 m/S 700 mmHg 75%
    03:00 -11°C° 0 mm 4 m/S 700 mmHg 75%
    04:00 -11°C° 0 mm 4 m/S 700 mmHg 75%
    05:00 -11°C° 0 mm 4 m/S 700 mmHg 75%
    06:00 -12°C° 0 mm 4 m/S 700 mmHg 74%
    07:00 -12°C° 0 mm 4 m/S 701 mmHg 74%
    08:00 -11°C° 0 mm 4 m/S 701 mmHg 69%
    09:00 -12°C° 0 mm 5 m/S 702 mmHg 65%
    10:00 -11°C° 0 mm 5 m/S 702 mmHg 61%
    11:00 -10°C° 0 mm 5 m/S 702 mmHg 57%
    12:00 -8°C° 0 mm 5 m/S 702 mmHg 54%
    13:00 -7°C° 0 mm 5 m/S 702 mmHg 51%
    14:00 -7°C° 0 mm 5 m/S 702 mmHg 52%
    15:00 -7°C° 0 mm 5 m/S 702 mmHg 52%
    16:00 -8°C° 0 mm 5 m/S 702 mmHg 52%
    17:00 -9°C° 0 mm 4 m/S 702 mmHg 56%
    18:00 -10°C° 0 mm 4 m/S 703 mmHg 61%
    19:00 -10°C° 0 mm 3 m/S 703 mmHg 66%
    20:00 -10°C° 0 mm 3 m/S 703 mmHg 66%
    21:00 -12°C° 0 mm 3 m/S 703 mmHg 66%
    22:00 -12°C° 0 mm 3 m/S 704 mmHg 66%
    23:00 -12°C° 0 mm 3 m/S 704 mmHg 66%
    Mehr zeigen